DAL421 KSFO-KSAN

Flight info

Callsign DAL421
Flight time 1h 9m
Altitude 39000
Route WESLA5 YYUNG LAX COMIX2
Aircraft A346/H-SDE2E3FGHIJ3J4J5M1RWXY/LB1D1

Departure

Time 2026-05-07 03:07
Airport San Francisco International Airport (KSFO)

Arrival

Time 2026-05-07 04:16
Airport San Diego International Airport (KSAN)
Time Latitude Longitude Altitude Speed Heading
2026-05-07 02:24 37.61979 -122.38501 30 ft 0 kts 138°
2026-05-07 02:46 37.61986 -122.38507 30 ft 3 kts 137°
2026-05-07 02:46 37.61992 -122.38514 30 ft 3 kts 130°
2026-05-07 02:47 37.62004 -122.38530 29 ft 3 kts 117°
2026-05-07 02:47 37.62008 -122.38547 29 ft 3 kts 88°
2026-05-07 02:47 37.62005 -122.38562 27 ft 3 kts 56°
2026-05-07 02:47 37.61994 -122.38575 29 ft 3 kts 28°
2026-05-07 02:48 37.62002 -122.38570 27 ft 3 kts 28°
2026-05-07 02:48 37.62018 -122.38559 30 ft 1 kts 28°
2026-05-07 02:48 37.62019 -122.38559 30 ft 0 kts 28°
2026-05-07 02:53 37.62029 -122.38552 30 ft 5 kts 28°
2026-05-07 02:53 37.62063 -122.38516 30 ft 8 kts 62°
2026-05-07 02:53 37.62056 -122.38431 30 ft 12 kts 118°
2026-05-07 02:54 37.62013 -122.38318 30 ft 15 kts 117°
2026-05-07 02:54 37.62000 -122.38284 30 ft 4 kts 117°
2026-05-07 02:54 37.61978 -122.38231 29 ft 9 kts 118°
2026-05-07 02:54 37.61939 -122.38140 30 ft 14 kts 118°
2026-05-07 02:55 37.61886 -122.38016 30 ft 18 kts 118°
2026-05-07 02:55 37.61840 -122.37900 30 ft 13 kts 114°
2026-05-07 02:55 37.61800 -122.37776 30 ft 17 kts 112°
2026-05-07 02:55 37.61752 -122.37623 30 ft 17 kts 110°
2026-05-07 02:56 37.61700 -122.37469 30 ft 20 kts 117°
2026-05-07 02:56 37.61627 -122.37293 30 ft 22 kts 118°
2026-05-07 02:56 37.61554 -122.37120 30 ft 20 kts 118°
2026-05-07 02:56 37.61481 -122.36953 30 ft 21 kts 126°
2026-05-07 02:57 37.61392 -122.36823 30 ft 15 kts 130°
2026-05-07 02:57 37.61328 -122.36694 30 ft 19 kts 118°
2026-05-07 02:57 37.61260 -122.36529 30 ft 23 kts 117°
2026-05-07 02:57 37.61194 -122.36371 30 ft 15 kts 118°
2026-05-07 02:58 37.61152 -122.36273 30 ft 12 kts 118°
2026-05-07 02:58 37.61105 -122.36164 30 ft 16 kts 118°
2026-05-07 02:58 37.61054 -122.36030 30 ft 17 kts 103°
2026-05-07 02:58 37.61066 -122.35950 30 ft 5 kts 57°
2026-05-07 02:59 37.61081 -122.35926 30 ft 3 kts 45°
2026-05-07 02:59 37.61082 -122.35925 30 ft 0 kts 44°
2026-05-07 03:05 37.61083 -122.35923 30 ft 1 kts 44°
2026-05-07 03:05 37.61102 -122.35905 30 ft 5 kts 34°
2026-05-07 03:05 37.61145 -122.35875 30 ft 9 kts 22°
2026-05-07 03:06 37.61199 -122.35910 30 ft 12 kts 302°
2026-05-07 03:06 37.61272 -122.36076 31 ft 50 kts 297°
2026-05-07 03:06 37.61550 -122.36744 31 ft 118 kts 298°
2026-05-07 03:06 37.62016 -122.37833 180 ft 157 kts 296°
2026-05-07 03:07 37.62541 -122.39060 878 ft 162 kts 297°
2026-05-07 03:07 37.63077 -122.40346 1535 ft 171 kts 297°
2026-05-07 03:07 37.63637 -122.41710 2274 ft 178 kts 297°
2026-05-07 03:07 37.64219 -122.43128 2888 ft 189 kts 298°
2026-05-07 03:08 37.64886 -122.44640 3352 ft 206 kts 301°
2026-05-07 03:08 37.65627 -122.46279 3801 ft 223 kts 302°
2026-05-07 03:08 37.66422 -122.48059 4246 ft 241 kts 299°
2026-05-07 03:08 37.66902 -122.50140 4880 ft 257 kts 272°
2026-05-07 03:09 37.66466 -122.52408 5403 ft 279 kts 242°
2026-05-07 03:09 37.65134 -122.54138 6184 ft 286 kts 209°
2026-05-07 03:09 37.63236 -122.54775 7164 ft 285 kts 178°
2026-05-07 03:09 37.61314 -122.54142 8083 ft 286 kts 156°
2026-05-07 03:10 37.59490 -122.53105 9010 ft 290 kts 155°
2026-05-07 03:10 37.57628 -122.52061 9962 ft 295 kts 155°
2026-05-07 03:10 37.55724 -122.51027 10754 ft 305 kts 155°
2026-05-07 03:10 37.53689 -122.49939 11356 ft 322 kts 156°
2026-05-07 03:11 37.51560 -122.48816 11894 ft 341 kts 158°
2026-05-07 03:11 37.49203 -122.48001 12409 ft 361 kts 170°
2026-05-07 03:11 37.46652 -122.47872 13133 ft 373 kts 184°
2026-05-07 03:11 37.44104 -122.48279 14110 ft 375 kts 187°
2026-05-07 03:12 37.41467 -122.48790 14981 ft 379 kts 188°
2026-05-07 03:12 37.38860 -122.49308 15750 ft 386 kts 188°
2026-05-07 03:12 37.36185 -122.49822 16514 ft 393 kts 187°
2026-05-07 03:12 37.33488 -122.50335 17302 ft 399 kts 187°
2026-05-07 03:13 37.30787 -122.50841 18103 ft 404 kts 187°
2026-05-07 03:13 37.28027 -122.51355 18847 ft 410 kts 187°
2026-05-07 03:13 37.25187 -122.51881 19561 ft 415 kts 188°
2026-05-07 03:13 37.22328 -122.52410 20281 ft 420 kts 188°
2026-05-07 03:14 37.19438 -122.52946 21011 ft 425 kts 188°
2026-05-07 03:14 37.16497 -122.53491 21721 ft 431 kts 188°
2026-05-07 03:14 37.10521 -122.54596 23107 ft 441 kts 188°
2026-05-07 03:15 37.07480 -122.55157 23824 ft 446 kts 188°
2026-05-07 03:15 37.04436 -122.55695 24404 ft 450 kts 186°
2026-05-07 03:15 37.01262 -122.55613 25004 ft 454 kts 171°
2026-05-07 03:15 36.98245 -122.54607 25622 ft 456 kts 157°
2026-05-07 03:16 36.95418 -122.52793 26218 ft 458 kts 148°
2026-05-07 03:16 36.92684 -122.50755 26798 ft 462 kts 147°
2026-05-07 03:16 36.89919 -122.48662 27372 ft 467 kts 147°
2026-05-07 03:16 36.87129 -122.46558 27924 ft 471 kts 148°
2026-05-07 03:17 36.84308 -122.44453 28518 ft 475 kts 148°
2026-05-07 03:17 36.81489 -122.42367 29062 ft 479 kts 148°
2026-05-07 03:17 36.78620 -122.40255 29634 ft 483 kts 148°
2026-05-07 03:17 36.75750 -122.38150 30178 ft 487 kts 148°
2026-05-07 03:18 36.72850 -122.36022 30649 ft 491 kts 148°
2026-05-07 03:18 36.69925 -122.33882 31298 ft 489 kts 148°
2026-05-07 03:18 36.67003 -122.31747 32036 ft 486 kts 148°
2026-05-07 03:18 36.64109 -122.29635 32747 ft 484 kts 148°
2026-05-07 03:19 36.61207 -122.27521 33423 ft 482 kts 148°
2026-05-07 03:19 36.58337 -122.25431 34088 ft 481 kts 148°
2026-05-07 03:19 36.55463 -122.23342 34651 ft 480 kts 148°
2026-05-07 03:19 36.52628 -122.21281 35198 ft 479 kts 148°
2026-05-07 03:20 36.49784 -122.19215 35723 ft 477 kts 148°
2026-05-07 03:20 36.46980 -122.17181 36240 ft 476 kts 148°
2026-05-07 03:20 36.44166 -122.15143 36735 ft 475 kts 148°
2026-05-07 03:20 36.41402 -122.13142 37209 ft 474 kts 148°
2026-05-07 03:21 36.38644 -122.11145 37641 ft 474 kts 148°
2026-05-07 03:21 36.35836 -122.09113 38026 ft 474 kts 148°
2026-05-07 03:21 36.33018 -122.07076 38334 ft 476 kts 148°
2026-05-07 03:21 36.30194 -122.05035 38633 ft 478 kts 148°
2026-05-07 03:22 36.27440 -122.03050 38921 ft 479 kts 148°
2026-05-07 03:22 36.24742 -122.01105 39128 ft 480 kts 148°
2026-05-07 03:22 36.22096 -121.99198 39136 ft 481 kts 148°
2026-05-07 03:23 36.16627 -121.95262 39138 ft 481 kts 148°
2026-05-07 03:23 36.11227 -121.91384 39132 ft 481 kts 148°
2026-05-07 03:24 36.05711 -121.87229 39127 ft 480 kts 144°
2026-05-07 03:24 36.00607 -121.82375 39123 ft 478 kts 137°
2026-05-07 03:25 35.96055 -121.76853 39128 ft 477 kts 130°
2026-05-07 03:25 35.92007 -121.70708 39126 ft 475 kts 125°
2026-05-07 03:26 35.88198 -121.64597 39103 ft 475 kts 125°
2026-05-07 03:26 35.84629 -121.58899 39120 ft 475 kts 126°
2026-05-07 03:27 35.80824 -121.52855 39116 ft 475 kts 125°
2026-05-07 03:27 35.76956 -121.46734 39111 ft 475 kts 125°
2026-05-07 03:28 35.73083 -121.40612 39094 ft 475 kts 125°
2026-05-07 03:28 35.69235 -121.34540 39100 ft 475 kts 126°
2026-05-07 03:29 35.65355 -121.28433 39098 ft 474 kts 125°
2026-05-07 03:29 35.61701 -121.22691 39099 ft 473 kts 125°
2026-05-07 03:30 35.57970 -121.16833 39095 ft 474 kts 125°
2026-05-07 03:30 35.54232 -121.10976 39099 ft 474 kts 125°
2026-05-07 03:31 35.50536 -121.05029 39098 ft 472 kts 123°
2026-05-07 03:31 35.46973 -120.98885 39098 ft 471 kts 122°
2026-05-07 03:32 35.43564 -120.93000 39099 ft 471 kts 122°
2026-05-07 03:32 35.40218 -120.87234 39104 ft 472 kts 122°
2026-05-07 03:33 35.36767 -120.81303 39107 ft 472 kts 122°
2026-05-07 03:33 35.33248 -120.75269 39108 ft 470 kts 122°
2026-05-07 03:34 35.29764 -120.69302 39113 ft 470 kts 122°
2026-05-07 03:34 35.26251 -120.63296 39110 ft 470 kts 122°
2026-05-07 03:35 35.23364 -120.58368 39110 ft 470 kts 122°
2026-05-07 03:35 35.19238 -120.51342 39111 ft 469 kts 122°
2026-05-07 03:36 35.15671 -120.45273 39106 ft 468 kts 122°
2026-05-07 03:36 35.12123 -120.39248 39112 ft 468 kts 122°
2026-05-07 03:37 35.09171 -120.34246 39105 ft 468 kts 122°
2026-05-07 03:37 35.05650 -120.28288 39106 ft 468 kts 122°
2026-05-07 03:38 35.02126 -120.22333 39102 ft 467 kts 122°
2026-05-07 03:38 34.98745 -120.16627 39097 ft 467 kts 122°
2026-05-07 03:39 34.95354 -120.10916 39104 ft 467 kts 122°
2026-05-07 03:39 34.91786 -120.04919 39098 ft 467 kts 122°
2026-05-07 03:40 34.88235 -119.98960 39073 ft 467 kts 122°
2026-05-07 03:40 34.84681 -119.93002 39076 ft 467 kts 122°
2026-05-07 03:41 34.81282 -119.87314 39073 ft 467 kts 122°
2026-05-07 03:41 34.77821 -119.81534 39080 ft 467 kts 122°
2026-05-07 03:42 34.74306 -119.75673 39061 ft 466 kts 122°
2026-05-07 03:42 34.70905 -119.70009 39068 ft 466 kts 122°
2026-05-07 03:43 34.67520 -119.64377 39072 ft 467 kts 122°
2026-05-07 03:43 34.64128 -119.58747 39068 ft 467 kts 122°
2026-05-07 03:44 34.60676 -119.53030 39072 ft 466 kts 122°
2026-05-07 03:44 34.57253 -119.47365 39073 ft 465 kts 122°
2026-05-07 03:45 34.53755 -119.41588 39070 ft 466 kts 122°
2026-05-07 03:45 34.50187 -119.35706 39072 ft 465 kts 122°
2026-05-07 03:46 34.46507 -119.29648 39070 ft 465 kts 122°
2026-05-07 03:46 34.42844 -119.23630 39073 ft 465 kts 122°
2026-05-07 03:47 34.39173 -119.17606 39065 ft 465 kts 122°
2026-05-07 03:47 34.35548 -119.11667 39064 ft 465 kts 122°
2026-05-07 03:48 34.31907 -119.05712 39065 ft 465 kts 122°
2026-05-07 03:48 34.28236 -118.99721 39073 ft 465 kts 122°
2026-05-07 03:49 34.24580 -118.93762 39062 ft 465 kts 122°
2026-05-07 03:49 34.22764 -118.90804 38815 ft 467 kts 122°
2026-05-07 03:49 34.20943 -118.87841 38041 ft 471 kts 122°
2026-05-07 03:49 34.19140 -118.84906 37282 ft 474 kts 122°
2026-05-07 03:50 34.17226 -118.81797 36693 ft 474 kts 122°
2026-05-07 03:50 34.15313 -118.78693 36097 ft 474 kts 122°
2026-05-07 03:50 34.13388 -118.75572 35481 ft 474 kts 122°
2026-05-07 03:50 34.11511 -118.72535 34887 ft 475 kts 122°
2026-05-07 03:51 34.09639 -118.69507 34281 ft 476 kts 122°
2026-05-07 03:51 34.07743 -118.66440 33626 ft 477 kts 122°
2026-05-07 03:51 34.05851 -118.63383 32987 ft 478 kts 122°
2026-05-07 03:51 34.03938 -118.60296 32357 ft 477 kts 122°
2026-05-07 03:52 34.02061 -118.57268 31758 ft 477 kts 122°
2026-05-07 03:52 34.00142 -118.54174 31118 ft 477 kts 123°
2026-05-07 03:52 33.98203 -118.51052 30464 ft 478 kts 123°
2026-05-07 03:52 33.96263 -118.47932 29792 ft 478 kts 123°
2026-05-07 03:53 33.94396 -118.44962 29396 ft 472 kts 124°
2026-05-07 03:53 33.92440 -118.42107 29006 ft 467 kts 127°
2026-05-07 03:53 33.90395 -118.39393 28610 ft 462 kts 129°
2026-05-07 03:53 33.88344 -118.36737 28224 ft 457 kts 129°
2026-05-07 03:54 33.86390 -118.34217 27842 ft 452 kts 129°
2026-05-07 03:54 33.84496 -118.31774 27479 ft 447 kts 129°
2026-05-07 03:54 33.82512 -118.29213 27096 ft 443 kts 129°
2026-05-07 03:54 33.80533 -118.26657 26703 ft 439 kts 129°
2026-05-07 03:55 33.78515 -118.24053 26299 ft 436 kts 129°
2026-05-07 03:55 33.76563 -118.21524 25891 ft 432 kts 128°
2026-05-07 03:55 33.74597 -118.18940 25462 ft 429 kts 128°
2026-05-07 03:55 33.72654 -118.16378 25060 ft 426 kts 128°
2026-05-07 03:56 33.70678 -118.13775 24653 ft 424 kts 128°
2026-05-07 03:56 33.68764 -118.11258 24261 ft 421 kts 128°
2026-05-07 03:56 33.66845 -118.08738 23863 ft 419 kts 128°
2026-05-07 03:56 33.64924 -118.06219 23436 ft 417 kts 128°
2026-05-07 03:57 33.63035 -118.03743 22990 ft 414 kts 128°
2026-05-07 03:57 33.61197 -118.01341 22590 ft 411 kts 128°
2026-05-07 03:57 33.59313 -117.98879 22164 ft 408 kts 128°
2026-05-07 03:57 33.57480 -117.96485 21776 ft 405 kts 128°
2026-05-07 03:58 33.55614 -117.94054 21371 ft 402 kts 129°
2026-05-07 03:58 33.53649 -117.91682 20975 ft 400 kts 132°
2026-05-07 03:58 33.51721 -117.89437 20583 ft 398 kts 132°
2026-05-07 03:58 33.49765 -117.87172 20176 ft 395 kts 132°
2026-05-07 03:59 33.47785 -117.84880 19762 ft 393 kts 132°
2026-05-07 03:59 33.45850 -117.82640 19370 ft 391 kts 132°
2026-05-07 03:59 33.43895 -117.80402 18981 ft 389 kts 134°
2026-05-07 03:59 33.41957 -117.78314 18569 ft 388 kts 134°
2026-05-07 04:00 33.39993 -117.76213 18123 ft 387 kts 134°
2026-05-07 04:00 33.38046 -117.74134 17696 ft 385 kts 134°
2026-05-07 04:00 33.36086 -117.72042 17287 ft 382 kts 134°
2026-05-07 04:00 33.34122 -117.69947 16891 ft 379 kts 134°
2026-05-07 04:01 33.32193 -117.67889 16499 ft 376 kts 134°
2026-05-07 04:01 33.30262 -117.65829 16104 ft 373 kts 134°
2026-05-07 04:01 33.28346 -117.63788 15714 ft 371 kts 134°
2026-05-07 04:01 33.26448 -117.61767 15323 ft 369 kts 134°
2026-05-07 04:02 33.24551 -117.59750 14921 ft 367 kts 134°
2026-05-07 04:02 33.22668 -117.57763 14518 ft 365 kts 135°
2026-05-07 04:02 33.20803 -117.55801 14124 ft 363 kts 135°
2026-05-07 04:02 33.18946 -117.53848 13711 ft 361 kts 135°
2026-05-07 04:03 33.17095 -117.51902 13284 ft 359 kts 135°
2026-05-07 04:03 33.15246 -117.49959 12864 ft 356 kts 135°
2026-05-07 04:03 33.13343 -117.48086 12444 ft 356 kts 139°
2026-05-07 04:03 33.11382 -117.46392 12040 ft 354 kts 141°
2026-05-07 04:04 33.09392 -117.44734 11642 ft 352 kts 141°
2026-05-07 04:04 33.07441 -117.43116 11249 ft 350 kts 141°
2026-05-07 04:04 33.05472 -117.41481 10834 ft 348 kts 141°
2026-05-07 04:04 33.03528 -117.39861 10551 ft 341 kts 141°
2026-05-07 04:05 33.01634 -117.38274 10323 ft 332 kts 141°
2026-05-07 04:05 32.99830 -117.36762 10214 ft 320 kts 141°
2026-05-07 04:05 32.98068 -117.35288 10123 ft 307 kts 140°
2026-05-07 04:05 32.96374 -117.33870 10032 ft 295 kts 140°
2026-05-07 04:06 32.94727 -117.32491 9845 ft 288 kts 140°
2026-05-07 04:06 32.93533 -117.31488 9584 ft 288 kts 140°
2026-05-07 04:06 32.91923 -117.30136 9271 ft 286 kts 140°
2026-05-07 04:06 32.90326 -117.28801 8963 ft 285 kts 141°
2026-05-07 04:07 32.88724 -117.27467 8671 ft 283 kts 141°
2026-05-07 04:07 32.87118 -117.26132 8362 ft 282 kts 141°
2026-05-07 04:07 32.85527 -117.24812 8070 ft 280 kts 142°
2026-05-07 04:07 32.83941 -117.23495 7764 ft 279 kts 142°
2026-05-07 04:08 32.82365 -117.22173 7474 ft 277 kts 139°
2026-05-07 04:08 32.81112 -117.20491 7157 ft 271 kts 116°
2026-05-07 04:08 32.80459 -117.18399 6856 ft 267 kts 103°
2026-05-07 04:08 32.80005 -117.16268 6569 ft 266 kts 101°
2026-05-07 04:09 32.79565 -117.14124 6260 ft 266 kts 102°
2026-05-07 04:09 32.79121 -117.12037 6185 ft 254 kts 102°
2026-05-07 04:09 32.78687 -117.10057 6119 ft 243 kts 102°
2026-05-07 04:09 32.78257 -117.08123 6053 ft 233 kts 103°
2026-05-07 04:10 32.77844 -117.06265 5985 ft 232 kts 103°
2026-05-07 04:10 32.77412 -117.04446 5976 ft 232 kts 104°
2026-05-07 04:10 32.76965 -117.02624 5783 ft 230 kts 104°
2026-05-07 04:10 32.76515 -117.00788 5481 ft 232 kts 104°
2026-05-07 04:11 32.76065 -116.98951 5212 ft 232 kts 104°
2026-05-07 04:11 32.75440 -116.97189 4950 ft 232 kts 125°
2026-05-07 04:11 32.74252 -116.95904 4685 ft 232 kts 152°
2026-05-07 04:11 32.72723 -116.95348 4431 ft 230 kts 178°
2026-05-07 04:12 32.71173 -116.95603 4178 ft 227 kts 203°
2026-05-07 04:12 32.69854 -116.96595 3918 ft 223 kts 228°
2026-05-07 04:12 32.69013 -116.98102 3667 ft 218 kts 252°
2026-05-07 04:12 32.68749 -116.99846 3389 ft 215 kts 275°
2026-05-07 04:13 32.69032 -117.01586 3079 ft 215 kts 288°
2026-05-07 04:13 32.69469 -117.03266 2846 ft 207 kts 289°
2026-05-07 04:13 32.69890 -117.04858 2648 ft 195 kts 288°
2026-05-07 04:13 32.70268 -117.06346 2495 ft 181 kts 289°
2026-05-07 04:14 32.70617 -117.07728 2176 ft 173 kts 289°
2026-05-07 04:14 32.70948 -117.09053 1884 ft 163 kts 289°
2026-05-07 04:14 32.71260 -117.10311 1586 ft 154 kts 288°
2026-05-07 04:14 32.71547 -117.11502 1421 ft 147 kts 288°
2026-05-07 04:15 32.71815 -117.12660 1216 ft 146 kts 287°
2026-05-07 04:15 32.72077 -117.13749 945 ft 145 kts 288°
2026-05-07 04:15 32.72369 -117.14889 693 ft 145 kts 289°
2026-05-07 04:15 32.72646 -117.16036 506 ft 145 kts 288°
2026-05-07 04:16 32.72915 -117.17171 238 ft 143 kts 288°
2026-05-07 04:16 32.73168 -117.18221 51 ft 139 kts 289°
2026-05-07 04:16 32.73405 -117.19164 30 ft 83 kts 285°
2026-05-07 04:16 32.73480 -117.19477 32 ft 0 kts 285°
2026-05-07 04:17 32.73493 -117.19532 32 ft 25 kts 285°
2026-05-07 04:17 32.73527 -117.19781 34 ft 20 kts 254°
2026-05-07 04:17 32.73505 -117.19830 32 ft 1 kts 228°
2026-05-07 04:17 32.73490 -117.19841 32 ft 4 kts 191°
2026-05-07 04:18 32.73462 -117.19817 31 ft 7 kts 118°
2026-05-07 04:18 32.73439 -117.19739 31 ft 12 kts 107°
2026-05-07 04:18 32.73411 -117.19625 31 ft 17 kts 106°
2026-05-07 04:18 32.73374 -117.19474 31 ft 20 kts 105°
2026-05-07 04:19 32.73335 -117.19313 31 ft 21 kts 106°
2026-05-07 04:19 32.73312 -117.19215 31 ft 8 kts 105°
2026-05-07 04:19 32.73293 -117.19135 31 ft 11 kts 107°
2026-05-07 04:19 32.73265 -117.19025 31 ft 16 kts 106°